EHI
0 0 0 0 0 0 0 0 0 0 0 0 0 0 0 0 0 0 0 0 0 0 0 0 0 0 0 0 0 0 0 0 0 0 0 0 0 0 0 0 0 0 0
0 0 0 0 0 0 0 0 0 0 0 0 0 0 0 0 0 0 0 0 0 0 0 0 0 0 0 0 0 0 0 0 0 0 0 0 0 0 0 0 0 0 0
0 0 0 0 0 0 0 0 0 0 0 0 0 0 0 0 0 0 0 0 0 0 0 0 0 0 0 0 0 0 0 0 0 0 0 0 0 0 0 0 0 0 0
0 0 0 0 0 0 0 0 0 0 0 0 0 0 0 0 0 0 0 0 0 0 0 0 0 0 0 0 0 0 0 0 0 0 0 0 0 0 0 0 0 0 0
0 0 0 0 0 0 0 0 0 0 0 0 0 0 0 0 0 0 0 0 0 0 0 0 0 0 0 0 0 0 0 0 0 0 0 0 0 0 0 0 0 0 0
0 0 0 0 0 0 0 0 0 0 0 0 0 0 0 0 0 0 0 0 0 0 0 0 0 0 0 0 0 0 0 0 0 0 0 0 0 0 0 0 0 0 0
0 0 0 0 0 0 0 0 0 0 0 0 0 0 0 0 0 0 0 0 0 0 0 0 0 0 0 0 0 0 0 0 0 0 0 0 0 0 0 0 0 0 0
0 0 0 0 0 0 0 0 0 0 0 0 0 0 0 0 0 0 0 0 0 0 0 0 0 0 0 0 0 0 0 0 0 0 0 0 0 0 0 0 0 0 0
0 0 0 0 0 0 0 0 0 0 0 0 0 0 0 0 0 0 0 0 0 0 0 0 0 0 0 0 0 0 0 0 0 0 0 0 0 0 0 0 0 0 0
0 0 0 0 0 0 0 0 0 0 0 0 0 0 0 0 0 0 0 0 0 0 0 0 0 0 0 0 0 0 0 0 0 0 0 0 0 0 0 0 0 0 0
0 0 0 0 0 0 0 0 0 0 0 0 0 0 0 0 0 0 0 0 0 0 0 0 0 0 0 0 0 0 0 0 0 0 0 0 0 0 0 0 0 0 0
0 0 0 0 0 0 0 0 0 0 0 0 0 0 0 0 0 0 0 0 0 0 0 0 0 0 0 0 0 0 0 0 0 0 0 0 0 0 0 0 0 0 0
0 0 0 0 0 0 0 0 0 0 0 0 0 0 0 0 0 0 0 0 0 0 0 0 0 0 0 0 0 0 0 0 0 0 0 0 0 0 0 0 0 0 0
0 0 0 0 0 0 0 0 0 0 0 0 0 0 0 0 0 0 0 0 0 0 0 0 0 0 0 0 0 0 0 0 0 0 0 0 0 0 0 0 0 0 0
0 0 0 0 0 0 0 0 0 0 0 0 0 0 0 0 0 0 0 0 0 0 0 0 0 0 0 0 0 0 0 0 0 0 0 0 0 0 0 0 0 0 0
0 0 0 0 0 0 0 0 0 0 0 0 0 0 0 0 0 0 0 0 0 0 0 0 0 0 0 0 0 0 0 0 0 0 0 0 0 0 0 0 0 0 0
0 0 0 0 0 0 0 0 0 0 0 0 0 0 0 0 0 0 0 0 0 0 0 0 0 0 0 0 0 0 0 0 0 0 0 0 0 0 0 0 0 0 0
0 0 0 0 0 0 0 0 0 0 0 0 0 0 0 0 0 0 0 0 0 0 0 0 0 0 0 0 0 0 0 0 0 0 0 0 0 0 0 0 0 0 0
0 0 0 0 0 0 0 0 0 0 0 0 0 0 0 0 0 0 0 0 0 0 0 0 0 0 0 0 0 0 0 0 0 0 0 0 0 0 0 0 0 0 0
0 0 0 0 0 0 0 0 0 0 0 0 0 0 0 0 0 0 0 0 0 0 0 0 0 0 0 0 0 0 0 0 0 0 0 0 0 0 0 0 0 0 0
0 0 0 0 0 0 0 0 0 0 0 0 0 0 0 0 0 0 0 0 0 0 0 0 0 0 0 0 0 0 0 0 0 0 0 0 0 0 0 0 0 0 0
0 0 0 0 0 0 0 0 0 0 0 0 0 0 0 0 0 0 0 0 0 0 0 0 0 0 0 0 0 0 0 0 0 0 0 0 0 0 0 0 0 0 0
0 0 0 0 0 0 0 0 0 0 0 0 0 0 0 0 0 0 0 0 0 0 0 0 0 0 0 0 0 0 0 0 0 0 0 0 0 0 0 0 0 0 0
0 0 0 0 0 0 0 0 0 0 0 0 0 0 0 0 0 0 0 0 0 0 0 0 0 0 0 0 0 0 0 0 0 0 0 0 0 0 0 0 0 0 0
0 0 0 0 0 0 0 0 0 0 0 0 0 0 0 0 0 0 0 0 0 0 0 0 0 0 0 0 0 0 0 0 0 0 0 0 0 0 0 0 0 0 0
0 0 0 0 0 0 0 0 0 0 0 0 0 0 0 0 0 0 0 0 0 0 0 0 0 0 0 0 0 0 0 0 0 0 0 0 0 0 0 0 0 0 0
Wind_Speed
14 14 14 13 13 13 12 12 11 11 10 10 10 10 9 9 8 7 7 7 7 6 5 5 5 5 4 4 4 4 4 4 6 6 5 5 7 9 8 9 10 10 8
13 13 13 13 13 13 13 12 11 11 10 10 9 9 9 9 8 8 7 7 7 6 6 5 5 4 5 4 4 5 4 5 6 8 7 7 8 9 9 10 10 8 9
12 13 13 12 13 12 12 11 10 10 9 9 9 9 9 9 8 8 7 7 7 7 6 6 6 6 5 5 5 5 5 5 6 7 8 7 8 8 9 10 10 8 10
11 12 12 12 11 11 11 10 10 9 9 8 8 8 8 9 9 8 7 7 7 6 6 6 6 6 7 7 6 6 6 7 7 7 7 7 7 7 8 8 8 7 8
11 12 11 11 10 10 10 9 8 8 8 7 7 7 7 7 9 10 8 7 7 6 6 6 6 6 7 7 8 9 9 8 8 8 8 8 7 8 8 7 9 9 9
11 11 10 10 9 9 8 8 7 7 7 6 7 7 7 8 8 10 11 8 7 7 6 6 4 2 4 5 6 8 10 10 10 9 8 9 9 9 8 8 8 8 8
9 9 9 8 8 8 7 7 7 6 5 6 6 6 7 9 8 8 11 9 6 6 7 6 6 5 6 8 7 8 9 9 9 9 10 10 10 9 10 10 9 9 9
9 8 8 7 8 7 6 6 6 5 5 5 5 6 6 8 7 8 13 8 5 6 6 6 6 7 8 10 11 10 9 5 4 7 8 9 9 9 9 9 9 9 9
8 7 7 6 6 6 6 5 5 4 5 4 5 5 5 6 8 9 13 7 5 5 5 5 6 7 8 10 11 10 9 7 3 7 9 10 11 11 10 8 7 7 7
7 6 6 5 5 5 5 5 4 4 4 4 5 5 5 6 7 8 13 7 6 6 5 3 3 5 9 10 10 9 9 9 10 8 6 7 7 7 9 8 7 7 7
6 5 5 4 4 4 4 4 4 4 4 4 4 4 4 5 4 5 9 8 8 7 6 5 5 6 9 10 10 8 8 11 10 8 6 5 3 3 3 3 4 6 6
4 4 4 3 3 4 3 3 3 3 2 3 3 3 3 3 4 4 5 6 8 8 6 6 7 10 12 12 8 7 10 11 7 5 5 5 5 5 5 5 5 5 6
3 3 3 3 3 3 2 2 2 2 3 4 4 4 4 4 2 2 5 7 7 7 6 7 9 11 11 7 4 8 9 6 6 6 6 6 5 6 6 5 4 4 5
3 2 2 2 3 3 2 2 3 4 5 4 5 5 5 4 6 7 7 5 4 5 6 5 7 9 8 5 5 4 4 5 6 6 6 6 5 5 5 5 5 5 4
2 1 1 2 3 2 3 4 5 7 7 6 6 6 6 6 8 10 9 8 9 9 10 6 5 5 5 6 5 5 5 5 6 6 6 7 6 6 5 5 5 5 5
1 1 1 1 2 1 2 4 5 4 3 1 3 6 4 5 8 9 9 9 10 11 9 5 6 6 6 7 7 6 6 6 7 7 7 7 7 6 6 5 5 5 5
1 2 1 1 1 1 1 1 3 4 4 3 1 2 5 7 7 8 9 10 10 10 5 5 6 6 6 7 7 7 7 7 7 7 7 7 7 7 6 6 6 6 6
1 1 1 1 1 2 2 2 2 2 2 3 5 3 2 3 5 7 10 8 2 2 5 6 6 6 7 7 7 8 8 8 8 8 8 8 8 8 8 7 7 8 7
1 1 1 2 1 2 2 2 3 3 3 3 3 4 2 4 7 7 7 4 6 6 6 6 6 7 7 7 8 8 8 8 8 8 8 9 8 8 8 8 7 6 6
2 3 2 0 1 2 2 3 3 3 3 3 3 4 3 2 2 3 4 6 6 6 7 7 7 7 7 7 8 8 8 8 9 8 9 9 9 8 8 9 8 8 7
1 4 4 2 1 2 2 3 3 2 3 3 4 5 6 5 4 5 5 6 6 7 7 7 7 7 7 7 8 9 10 9 9 9 9 9 9 8 8 8 8 8 7
1 1 2 1 2 2 2 2 2 2 2 3 2 3 2 3 4 4 5 6 6 6 6 7 7 7 7 8 8 9 9 10 10 10 10 10 9 8 8 8 8 8 9
0 1 2 2 3 3 2 1 2 2 2 2 2 2 2 3 4 5 5 5 6 6 6 6 6 7 8 8 7 8 9 10 10 11 10 9 9 8 7 8 9 8 9
1 1 2 3 2 2 2 2 1 2 1 1 2 2 3 4 4 5 5 5 5 6 6 6 7 9 11 9 8 8 9 10 11 10 12 10 9 8 7 7 8 9 8
1 1 2 2 2 2 2 1 1 1 1 2 2 2 3 3 4 4 5 5 6 6 7 7 6 8 11 12 12 12 11 10 9 10 11 8 8 8 8 8 7 8 9
2 2 2 2 2 2 2 1 1 1 1 1 2 2 3 3 4 5 5 5 6 6 6 6 9 10 12 11 13 12 11 11 11 12 11 7 7 8 9 7 8 7 8
Wind_Direction
72 73 74 75 76 78 78 78 79 78 76 75 73 72 68 62 56 53 52 49 48 45 31 28 21 5 352 343 339 332 328 319 308 310 314 314 307 302 307 302 295 290 283
77 77 77 78 79 80 80 80 80 79 78 77 76 73 70 66 58 51 47 42 39 35 27 15 6 360 351 338 337 330 328 327 309 311 312 310 310 305 302 299 296 295 297
82 81 80 80 80 80 81 81 80 80 78 77 73 69 65 61 56 48 41 37 32 26 17 7 0 353 347 350 330 329 326 320 311 304 305 310 305 309 309 301 301 302 296
86 86 84 84 85 87 87 85 82 80 77 71 68 64 59 52 43 34 31 31 24 20 12 1 357 355 355 344 330 333 328 318 308 300 301 304 305 313 309 309 310 312 308
90 88 87 87 87 86 84 82 80 76 73 68 65 61 55 53 34 14 7 19 14 9 6 1 12 10 1 341 334 334 326 318 312 309 308 310 317 320 318 319 314 312 307
92 91 91 91 89 87 85 82 77 71 64 59 52 49 47 51 36 11 351 358 1 359 356 352 347 342 0 304 301 306 308 307 317 314 312 317 317 318 321 315 314 315 315
96 96 95 92 88 86 84 80 73 68 63 57 48 44 52 61 32 8 351 333 350 357 349 342 338 2 326 339 320 283 269 251 259 291 304 312 315 321 318 313 314 314 309
100 97 94 91 88 84 79 72 62 55 50 46 41 37 46 62 32 2 335 312 347 349 344 341 336 339 12 347 325 317 317 312 283 283 306 309 313 317 312 304 303 300 295
98 94 89 86 85 79 70 63 53 46 43 41 43 33 36 64 38 3 337 323 350 348 345 351 343 348 26 339 315 316 321 325 274 254 270 278 281 278 282 293 300 302 311
93 89 86 80 73 68 63 54 52 44 38 34 44 35 29 40 54 10 341 329 351 344 345 0 82 359 344 325 316 320 326 332 327 315 286 264 262 253 241 262 293 306 317
93 89 83 77 76 71 64 55 43 39 39 33 36 43 46 34 66 38 351 339 346 336 340 348 27 8 331 318 304 309 324 314 308 311 316 322 322 310 288 285 297 302 314
98 91 80 69 61 75 72 59 38 16 34 44 36 33 54 69 37 28 332 316 313 317 331 347 1 343 321 308 306 324 307 294 296 317 331 345 349 346 340 328 319 304 292
97 81 74 75 67 60 58 56 38 20 15 23 21 28 32 27 71 239 279 280 280 301 334 332 311 303 300 290 262 286 291 302 329 337 345 349 345 339 327 320 313 296 286
82 69 75 85 90 83 38 27 20 19 19 20 19 20 19 19 18 5 344 334 312 308 327 308 271 267 273 309 311 306 324 348 343 341 344 340 338 335 330 333 336 338 334
77 69 62 78 79 96 75 38 19 45 28 360 8 8 9 11 15 345 328 339 341 343 325 320 349 2 4 8 2 1 356 356 354 352 345 341 342 344 342 340 335 333 342
55 59 60 74 82 95 116 123 79 48 89 32 357 342 5 20 340 327 323 316 309 309 312 353 7 6 3 0 358 358 359 360 354 347 344 341 342 345 344 345 344 345 351
25 26 8 37 70 70 58 61 123 151 188 198 216 321 336 337 326 325 322 312 294 296 322 10 8 5 360 357 356 355 354 352 345 344 347 346 345 346 346 351 359 358 358
10 98 321 47 41 50 58 44 41 54 111 139 167 188 294 303 308 313 312 306 308 333 12 12 9 5 0 357 354 353 351 351 351 349 352 351 350 350 352 355 4 3 1
349 67 60 50 66 69 58 59 62 56 55 61 80 130 217 241 238 265 296 354 19 14 13 12 10 5 359 355 354 354 351 351 354 350 352 352 349 350 355 355 1 4 353
89 61 331 348 99 87 74 66 68 71 73 65 55 35 10 358 25 27 17 21 17 13 8 6 5 1 358 355 353 353 352 353 355 354 354 351 350 352 354 357 360 1 7
116 133 188 229 89 73 69 62 64 60 67 71 66 52 339 342 19 20 22 20 17 10 6 356 354 358 360 355 354 353 352 354 358 356 351 349 349 353 354 358 3 7 10
352 112 144 92 93 81 64 72 73 76 73 74 76 114 248 311 19 18 20 18 15 9 5 353 349 359 0 353 351 347 348 353 354 349 344 343 347 355 1 6 9 13 13
137 96 117 115 112 123 192 96 79 75 74 74 52 28 26 22 18 19 20 17 10 7 4 358 353 0 1 350 344 341 350 350 341 332 330 335 343 353 3 9 13 20 29
116 126 125 126 134 144 129 112 100 77 59 56 37 29 27 24 19 17 10 12 8 8 6 4 2 1 359 355 349 356 7 347 328 320 325 328 341 355 3 9 15 18 22
109 121 127 128 136 133 127 124 110 94 69 46 31 21 22 19 16 18 15 12 8 12 11 11 5 4 1 3 5 3 353 329 319 320 316 328 355 4 1 10 15 20 21
112 127 129 128 126 125 129 126 109 84 61 45 33 23 17 18 19 18 16 14 6 15 14 13 8 12 9 5 5 356 341 333 330 322 312 333 6 17 358 3 12 19 24